CZ-2D R/B (28738 NORAD) Tracking and Keplerian Element Data

This shows tracking and keplerian element data for the satellite.

Feedback or suggestion? Click here.




ElementValue
Catalog28738
NameCZ-2D R/B
Epoch Orbit71552
Epoch Day198.6521022
Epoch Year2018
RAAN231.7354
Inclination97.4518
Eccentricity0.0013813
Argument of Perigee84.0207
Mean Anonmoly276.2598
Mean Motion15.11573627
Decay Rate3.21E-06
L11 28738U 05024B 18198.65210220 .00000321 00000-0 22583-4 0 9994
L22 28738 97.4518 231.7354 0013813 84.0207 276.2598 15.11573627715523

Live tracking and technical data element details for CZ-2D R/B (NORAD 28738). CZ-2D R/B can be tracked NOW for your location showing map with azimuth and elevation plus other details from your city location.

Track the satellite on the map from your city or location and see movement details for azimuth, elevation, latitude, longitude, range, height, and movement on the map or in text.







IsCatalogInMostPopularTable: catalog: 28738, numindb: 28
Update: records affected: 1



GetName: 28738 CZ-2D R/B

Hit Count: updated at: Thu, 19 Jul 2018 03:39:48 GMT